| time (UTC) | temp C | wind direction | speed KPH | gust KPH | rain 1hr cm | rain 24hr cm | rain mn cm | humidity % | barometer mb |
| 20260505101809 | 10 | 0 | 0.0 | 6.4 | 0.00 | 0.00 | 0.00 | 88 | 1015.2 |
| 20260505100910 | 10 | 0 | 0.0 | 6.4 | 0.00 | 0.00 | 0.00 | 88 | 1015.2 |
| 20260505100309 | 10 | 0 | 0.0 | 6.4 | 0.00 | 0.00 | 0.00 | 88 | 1015.2 |
| 20260505095410 | 10 | 0 | 0.0 | 4.8 | 0.00 | 0.00 | 0.00 | 88 | 1015.1 |
| 20260505094809 | 10 | 0 | 0.0 | 4.8 | 0.00 | 0.00 | 0.00 | 88 | 1015.1 |
| 20260505093911 | 10 | 0 | 0.0 | 4.8 | 0.00 | 0.00 | 0.00 | 88 | 1015.0 |
| 20260505093309 | 10 | 0 | 0.0 | 0.0 | 0.00 | 0.00 | 0.00 | 88 | 1015.0 |
| 20260505092410 | 10 | 0 | 0.0 | 3.2 | 0.00 | 0.00 | 0.00 | 88 | 1014.9 |
| 20260505091809 | 10 | 0 | 0.0 | 3.2 | 0.00 | 0.00 | 0.00 | 88 | 1015.0 |
| 20260505090910 | 10 | 0 | 0.0 | 1.6 | 0.00 | 0.00 | 0.00 | 88 | 1014.8 |
| 20260505090309 | 10 | 0 | 0.0 | 1.6 | 0.00 | 0.00 | 0.00 | 88 | 1014.7 |
| 20260505085411 | 10 | 0 | 0.0 | 8.0 | 0.00 | 0.00 | 0.00 | 88 | 1014.7 |
| 20260505084809 | 10 | 0 | 0.0 | 8.0 | 0.00 | 0.00 | 0.00 | 88 | 1014.8 |
| 20260505083910 | 10 | 0 | 0.0 | 8.0 | 0.00 | 0.00 | 0.00 | 88 | 1014.8 |
| 20260505083309 | 10 | 0 | 0.0 | 8.0 | 0.00 | 0.00 | 0.00 | 88 | 1014.9 |
| 20260505082410 | 10 | 0 | 0.0 | 14.5 | 0.00 | 0.00 | 0.00 | 88 | 1014.8 |
| 20260505081809 | 10 | 0 | 0.0 | 14.5 | 0.00 | 0.00 | 0.00 | 88 | 1014.7 |
| 20260505080910 | 10 | 0 | 0.0 | 14.5 | 0.00 | 0.00 | 0.00 | 88 | 1014.7 |
| 20260505080309 | 10 | 304 | 8.0 | 14.5 | 0.00 | 0.00 | 0.00 | 88 | 1014.7 |
| 20260505075411 | 10 | 259 | 1.6 | 16.1 | 0.00 | 0.00 | 0.00 | 88 | 1014.7 |
| 20260505074809 | 10 | 0 | 0.0 | 16.1 | 0.00 | 0.00 | 0.00 | 88 | 1014.6 |
| 20260505073911 | 10 | 239 | 9.7 | 16.1 | 0.00 | 0.00 | 0.00 | 88 | 1014.5 |
| 20260505073310 | 10 | 0 | 0.0 | 14.5 | 0.00 | 0.00 | 0.00 | 88 | 1014.4 |
| 20260505072411 | 10 | 0 | 0.0 | 17.7 | 0.00 | 0.00 | 0.00 | 88 | 1014.4 |
| 20260505071810 | 10 | 0 | 0.0 | 17.7 | 0.00 | 0.00 | 0.00 | 88 | 1014.4 |
| 20260505070912 | 10 | 232 | 16.1 | 16.1 | 0.00 | 0.00 | 0.00 | 88 | 1014.2 |
| 20260505070310 | 10 | 254 | 6.4 | 9.7 | 0.00 | 0.00 | 0.00 | 88 | 1014.1 |
| 20260505065411 | 10 | 0 | 0.0 | 19.3 | 0.00 | 0.00 | 0.00 | 88 | 1014.1 |
| 20260505064810 | 10 | 0 | 9.7 | 19.3 | 0.00 | 0.00 | 0.00 | 88 | 1014.1 |
| 20260505063912 | 10 | 0 | 0.0 | 19.3 | 0.00 | 0.00 | 0.00 | 88 | 1014.1 |
| 20260505063310 | 10 | 270 | 9.7 | 19.3 | 0.00 | 0.00 | 0.00 | 88 | 1014.1 |
| 20260505062411 | 10 | 0 | 0.0 | 25.7 | 0.00 | 0.00 | 0.00 | 88 | 1014.1 |
| 20260505061810 | 10 | 0 | 0.0 | 25.7 | 0.00 | 0.00 | 0.00 | 88 | 1014.0 |
| 20260505060911 | 10 | 0 | 0.0 | 25.7 | 0.00 | 0.00 | 0.00 | 88 | 1014.0 |
| 20260505060310 | 10 | 0 | 14.5 | 25.7 | 0.00 | 0.00 | 0.00 | 88 | 1013.9 |
| 20260505055411 | 10 | 0 | 0.0 | 27.4 | 0.00 | 0.00 | 0.00 | 88 | 1013.8 |
| 20260505054810 | 10 | 269 | 1.6 | 27.4 | 0.00 | 0.00 | 0.00 | 88 | 1013.7 |
| 20260505053911 | 10 | 0 | 16.1 | 27.4 | 0.00 | 0.00 | 0.00 | 88 | 1013.6 |
| 20260505053309 | 10 | 263 | 12.9 | 27.4 | 0.00 | 0.00 | 0.00 | 88 | 1013.5 |
| 20260505052411 | 10 | 0 | 0.0 | 24.1 | 0.00 | 0.00 | 0.00 | 88 | 1013.5 |
| 20260505051809 | 10 | 268 | 20.9 | 24.1 | 0.00 | 0.00 | 0.00 | 88 | 1013.5 |
| 20260505050911 | 10 | 285 | 14.5 | 22.5 | 0.00 | 0.00 | 0.00 | 88 | 1013.4 |
| 20260505050309 | 10 | 0 | 0.0 | 16.1 | 0.00 | 0.00 | 0.00 | 88 | 1013.4 |
| 20260505040911 | 10 | 244 | 16.1 | 24.1 | 0.00 | 0.00 | 0.00 | 87 | 1013.1 |
| 20260505040309 | 10 | 0 | 19.3 | 22.5 | 0.00 | 0.00 | 0.00 | 87 | 1013.0 |
| 20260505035410 | 11 | 0 | 9.7 | 29.0 | 0.00 | 0.00 | 0.00 | 87 | 1012.8 |
| 20260505034809 | 11 | 233 | 1.6 | 29.0 | 0.00 | 0.00 | 0.00 | 87 | 1012.7 |
| 20260505033912 | 11 | 0 | 20.9 | 24.1 | 0.00 | 0.00 | 0.00 | 87 | 1012.5 |
| 20260505033309 | 11 | 0 | 17.7 | 20.9 | 0.00 | 0.00 | 0.00 | 87 | 1012.5 |
| 20260504120309 | 11 | 260 | 11.3 | 17.7 | 0.00 | 0.00 | 0.00 | 85 | 1010.4 |
| 20260504110309 | 12 | 0 | 0.0 | 9.7 | 0.00 | 0.00 | 0.00 | 79 | 1009.9 |